SNAP-3 EDDIE

Last updated on Wed Oct 29 2025 00:03:53 GMT+0000 (Coordinated Universal Time)

1 40972U 15058J 25301.60823177 .00040595 00000+0 13274-2 0 9997 2 40972 64.7533 155.5794 0059739 148.3104 212.1646 15.29751158 83289
UTC large
Height (km)
Speed (km/s)
/
Latitude / Longitude
Inclination (degrees)
Orbital Period (minutes)
Azimuth
Elevation
Range (km)
Doppler Factor

Next 0 passes for location: London (51.5072 / 0.1276)

Sorry there are no passes over London.